Find Mozhaets-3

NORAD ID: 27560 Int'l Des: 2002-054 Owner: MOZHA Country: RU operational
LEOCIRCULARRETROGRADESSO

实时位置

正在加载3D地球...

关于 Mozhaets-3

正在加载描述...

即将过境

Passes for default location (London). Set your location on the main map for personalized predictions.

高度历史

Loading altitude history...

两行轨道根数

1 27560U 02054B 26107.32986718 .00000183 00000-0 46665-4 0 9994
2 27560 98.4485 322.8124 0037491 204.4050 209.9929 14.61741193243388
Epoch: Apr 17, 2026 • Age: 5 hours

当前状态

高度 668.0 km
速度 7.54 km/s
星下点 11.04°N, 98.48°E
发射日期 Nov 28, 2002
运行时间 23.3 years
类型 other

技术详情

分类 Payload
质量 64.00 kg
干质量 64.00 kg
总质量 64.00 kg
长度 1.00 m
直径 1.00 m
跨度 1.00 m
形状 Poly
制造商 NPOPMR
平台类型 Strela-1M
阶段状态 In Orbit
所有者/国家 MOZHA/RU

Most Searched